This is the latest recevied weather packets stored in our database for station/object F4WDE-10. If no packets are shown the sender has not sent any weather packets the latest 10 day(s).
| Time | Temp. | Humidity | Pressure | Rain* | Wind** | Luminosity | Snow |
|---|---|---|---|---|---|---|---|
| 1777198211 | 17.22° C | 86% | 965 hPa | - | - | - | - |
| 1777197310 | 17.22° C | 83% | 964 hPa | - | - | - | - |
| 1777196409 | 17.78° C | 81% | 964 hPa | - | - | - | - |
| 1777195508 | 17.78° C | 81% | 964 hPa | - | - | - | - |
| 1777194607 | 17.78° C | 78% | 964 hPa | - | - | - | - |
| 1777193706 | 18.33° C | 76% | 964 hPa | - | - | - | - |
| 1777192805 | 18.33° C | 76% | 964 hPa | - | - | - | - |
| 1777191904 | 18.33° C | 78% | 964 hPa | - | - | - | - |
| 1777191003 | 17.22° C | 80% | 964 hPa | - | - | - | - |
| 1777190102 | 17.78° C | 80% | 963 hPa | - | - | - | - |
| 1777189200 | 17.78° C | 81% | 963 hPa | - | - | - | - |
| 1777188299 | 17.22° C | 83% | 963 hPa | - | - | - | - |
| 1777187398 | 17.22° C | 81% | 963 hPa | - | - | - | - |
| 1777186497 | 17.22° C | 82% | 963 hPa | - | - | - | - |
| 1777185596 | 17.22° C | 81% | 963 hPa | - | - | - | - |
| 1777184695 | 17.22° C | 83% | 963 hPa | - | - | - | - |
| 1777183794 | 16.67° C | 83% | 963 hPa | - | - | - | - |
| 1777182893 | 16.11° C | 85% | 963 hPa | - | - | - | - |
| 1777181992 | 16.11° C | 91% | 963 hPa | - | - | - | - |
| 1777181090 | 15.56° C | 94% | 963 hPa | - | - | - | - |
| 1777180189 | 15.56° C | 96% | 963 hPa | - | - | - | - |
| 1777179287 | 15.56° C | 95% | 963 hPa | - | - | - | - |
| 1777178386 | 15.56° C | 93% | 962 hPa | - | - | - | - |
| 1777177485 | 15° C | 95% | 962 hPa | - | - | - | - |
| 1777176584 | 15.56° C | 94% | 962 hPa | - | - | - | - |
* Rain since midnight (hover to see other rain measurements)
** Current wind speed in m/s (hover to see current wind gust speed)